RUK198P EGCC-GMTT

Flight info

Callsign RUK198P
Flight time 2h 53m
Altitude 23000
Route KUXEM P17 BEPHE/N0442F360 DCT OSSEP DCT ELNIF DCT ZESPE DCT KLAKI DCT SALCO/N0444F370 DCT GOPIN DCT DELOG DCT VADOX DCT SNR DCT TITAN DCT RATAS DCT NEA DCT NONTU DCT ORBIS DCT DISKO DCT TLD DCT DOPEN DCT MONTO DCT MOLIN DCT VJF N10 LINTO DCT NOLRO
Aircraft B738/M-SDE3FGILRWY/SB1

Departure

Time 2026-05-07 14:26
Airport Manchester Airport (EGCC)

Arrival

Time 2026-05-07 17:19
Airport Tangier Ibn Battuta Airport (GMTT)
Time Latitude Longitude Altitude Speed Heading
2026-05-07 13:39 53.35924 -2.26985 254 ft 0 kts 275°
2026-05-07 14:15 53.35924 -2.26974 254 ft 4 kts 275°
2026-05-07 14:15 53.35921 -2.26929 254 ft 4 kts 275°
2026-05-07 14:15 53.35919 -2.26892 254 ft 4 kts 267°
2026-05-07 14:15 53.35927 -2.26857 254 ft 4 kts 209°
2026-05-07 14:16 53.35952 -2.26845 254 ft 3 kts 179°
2026-05-07 14:16 53.35973 -2.26844 254 ft 4 kts 203°
2026-05-07 14:16 53.35993 -2.26817 254 ft 4 kts 231°
2026-05-07 14:16 53.35999 -2.26806 254 ft 0 kts 230°
2026-05-07 14:21 53.35998 -2.26807 254 ft 1 kts 230°
2026-05-07 14:21 53.35973 -2.26837 254 ft 8 kts 202°
2026-05-07 14:22 53.35894 -2.26858 255 ft 9 kts 221°
2026-05-07 14:22 53.35866 -2.26913 255 ft 9 kts 233°
2026-05-07 14:22 53.35823 -2.27021 254 ft 13 kts 238°
2026-05-07 14:22 53.35758 -2.27171 254 ft 18 kts 231°
2026-05-07 14:23 53.35674 -2.27342 254 ft 17 kts 231°
2026-05-07 14:23 53.35613 -2.27451 253 ft 10 kts 210°
2026-05-07 14:23 53.35573 -2.27454 254 ft 3 kts 158°
2026-05-07 14:23 53.35549 -2.27425 252 ft 8 kts 141°
2026-05-07 14:24 53.35475 -2.27326 247 ft 14 kts 140°
2026-05-07 14:24 53.35392 -2.27216 245 ft 16 kts 149°
2026-05-07 14:24 53.35284 -2.27205 245 ft 16 kts 191°
2026-05-07 14:24 53.35180 -2.27241 242 ft 15 kts 191°
2026-05-07 14:25 53.35068 -2.27276 236 ft 18 kts 193°
2026-05-07 14:25 53.34989 -2.27361 226 ft 15 kts 231°
2026-05-07 14:25 53.34906 -2.27532 222 ft 37 kts 231°
2026-05-07 14:25 53.34593 -2.28179 227 ft 104 kts 231°
2026-05-07 14:26 53.34013 -2.29380 236 ft 159 kts 229°
2026-05-07 14:26 53.33286 -2.30887 795 ft 166 kts 229°
2026-05-07 14:26 53.32557 -2.32408 1528 ft 172 kts 228°
2026-05-07 14:26 53.31981 -2.34349 1819 ft 205 kts 258°
2026-05-07 14:27 53.32049 -2.36874 2019 ft 232 kts 278°
2026-05-07 14:27 53.32407 -2.39560 2522 ft 239 kts 280°
2026-05-07 14:27 53.32663 -2.42394 2831 ft 253 kts 262°
2026-05-07 14:27 53.32273 -2.45276 3479 ft 256 kts 250°
2026-05-07 14:28 53.31744 -2.48120 4355 ft 255 kts 249°
2026-05-07 14:28 53.31215 -2.50952 5156 ft 257 kts 250°
2026-05-07 14:28 53.30683 -2.53814 5972 ft 258 kts 250°
2026-05-07 14:28 53.30148 -2.56707 6731 ft 262 kts 251°
2026-05-07 14:29 53.29576 -2.59602 7450 ft 263 kts 245°
2026-05-07 14:29 53.28814 -2.62392 8123 ft 266 kts 242°
2026-05-07 14:29 53.27820 -2.64976 8826 ft 264 kts 222°
2026-05-07 14:29 53.26369 -2.66860 9555 ft 266 kts 214°
2026-05-07 14:30 53.24831 -2.68622 10194 ft 270 kts 213°
2026-05-07 14:30 53.23273 -2.70394 10859 ft 272 kts 213°
2026-05-07 14:30 53.21703 -2.72189 11525 ft 275 kts 213°
2026-05-07 14:30 53.20114 -2.74011 12172 ft 279 kts 213°
2026-05-07 14:31 53.18513 -2.75853 12848 ft 281 kts 213°
2026-05-07 14:31 53.16889 -2.77723 13523 ft 285 kts 213°
2026-05-07 14:31 53.15247 -2.79615 14162 ft 289 kts 213°
2026-05-07 14:31 53.13585 -2.81531 14825 ft 291 kts 213°
2026-05-07 14:32 53.11906 -2.83463 15510 ft 294 kts 214°
2026-05-07 14:32 53.10213 -2.85409 16196 ft 297 kts 214°
2026-05-07 14:32 53.08410 -2.87120 16836 ft 301 kts 199°
2026-05-07 14:32 53.06371 -2.87769 17454 ft 307 kts 181°
2026-05-07 14:33 53.04234 -2.87488 18157 ft 310 kts 174°
2026-05-07 14:33 53.02084 -2.86923 18713 ft 315 kts 172°
2026-05-07 14:33 52.99911 -2.86297 19322 ft 317 kts 172°
2026-05-07 14:33 52.97736 -2.85670 19957 ft 319 kts 172°
2026-05-07 14:34 52.95530 -2.85048 20458 ft 324 kts 172°
2026-05-07 14:34 52.93286 -2.84428 20969 ft 329 kts 172°
2026-05-07 14:34 52.91023 -2.83812 21581 ft 331 kts 172°
2026-05-07 14:34 52.88739 -2.83195 22164 ft 333 kts 172°
2026-05-07 14:35 52.86442 -2.82577 22716 ft 337 kts 172°
2026-05-07 14:35 52.84121 -2.81956 23291 ft 339 kts 172°
2026-05-07 14:35 52.81780 -2.81330 23793 ft 342 kts 172°
2026-05-07 14:35 52.79424 -2.80700 24300 ft 343 kts 172°
2026-05-07 14:36 52.77063 -2.80054 24815 ft 345 kts 171°
2026-05-07 14:36 52.74688 -2.79399 25258 ft 348 kts 171°
2026-05-07 14:36 52.72294 -2.78740 25725 ft 349 kts 171°
2026-05-07 14:36 52.69883 -2.78080 26114 ft 354 kts 171°
2026-05-07 14:37 52.67443 -2.77435 26597 ft 354 kts 171°
2026-05-07 14:37 52.62611 -2.76170 27811 ft 349 kts 171°
2026-05-07 14:37 52.60200 -2.75808 28367 ft 348 kts 181°
2026-05-07 14:38 52.57818 -2.76019 28875 ft 347 kts 183°
2026-05-07 14:38 52.55408 -2.76277 29360 ft 347 kts 182°
2026-05-07 14:38 52.53003 -2.76511 29884 ft 345 kts 182°
2026-05-07 14:38 52.50608 -2.76727 30366 ft 344 kts 182°
2026-05-07 14:39 52.48220 -2.76936 30781 ft 343 kts 182°
2026-05-07 14:39 52.45836 -2.77141 31144 ft 343 kts 182°
2026-05-07 14:39 52.43445 -2.77347 31493 ft 344 kts 182°
2026-05-07 14:39 52.41060 -2.77552 31888 ft 343 kts 182°
2026-05-07 14:40 52.38683 -2.77757 32239 ft 342 kts 182°
2026-05-07 14:40 52.36307 -2.77962 32602 ft 341 kts 182°
2026-05-07 14:40 52.33939 -2.78166 32938 ft 340 kts 182°
2026-05-07 14:40 52.31578 -2.78369 33290 ft 340 kts 182°
2026-05-07 14:41 52.29213 -2.78572 33574 ft 340 kts 182°
2026-05-07 14:41 52.26847 -2.78775 33882 ft 340 kts 182°
2026-05-07 14:41 52.24488 -2.78978 34182 ft 339 kts 183°
2026-05-07 14:41 52.22120 -2.79181 34249 ft 345 kts 184°
2026-05-07 14:42 52.19677 -2.79391 34111 ft 358 kts 184°
2026-05-07 14:42 52.17173 -2.79605 34213 ft 362 kts 184°
2026-05-07 14:42 52.14619 -2.79824 34110 ft 374 kts 184°
2026-05-07 14:42 52.12001 -2.80047 34183 ft 379 kts 184°
2026-05-07 14:43 52.06643 -2.80503 34285 ft 392 kts 184°
2026-05-07 14:43 52.01111 -2.80974 34372 ft 404 kts 184°
2026-05-07 14:44 51.95446 -2.81457 34479 ft 416 kts 184°
2026-05-07 14:44 51.89596 -2.81954 34588 ft 426 kts 184°
2026-05-07 14:45 51.86620 -2.82206 34708 ft 429 kts 184°
2026-05-07 14:45 51.83642 -2.82593 34926 ft 429 kts 187°
2026-05-07 14:45 51.80684 -2.83195 35208 ft 428 kts 189°
2026-05-07 14:45 51.77740 -2.83858 35459 ft 427 kts 189°
2026-05-07 14:46 51.74799 -2.84528 35654 ft 428 kts 189°
2026-05-07 14:46 51.71842 -2.85187 35863 ft 428 kts 189°
2026-05-07 14:46 51.68891 -2.85827 36052 ft 429 kts 189°
2026-05-07 14:46 51.65921 -2.86461 36039 ft 433 kts 189°
2026-05-07 14:47 51.59948 -2.87721 36033 ft 432 kts 189°
2026-05-07 14:47 51.54031 -2.88966 36035 ft 426 kts 189°
2026-05-07 14:48 51.48180 -2.90205 36027 ft 423 kts 189°
2026-05-07 14:48 51.42352 -2.91441 36024 ft 421 kts 189°
2026-05-07 14:49 51.36536 -2.92670 36027 ft 421 kts 189°
2026-05-07 14:49 51.30733 -2.93893 36014 ft 421 kts 189°
2026-05-07 14:50 51.24917 -2.95116 36015 ft 422 kts 189°
2026-05-07 14:50 51.19125 -2.96330 36014 ft 423 kts 189°
2026-05-07 14:51 51.13274 -2.97553 36019 ft 425 kts 189°
2026-05-07 14:51 51.07405 -2.98777 36016 ft 426 kts 189°
2026-05-07 14:52 51.01512 -3.00003 36018 ft 428 kts 189°
2026-05-07 14:52 50.95599 -3.01229 36021 ft 429 kts 189°
2026-05-07 14:53 50.89674 -3.02455 36019 ft 429 kts 189°
2026-05-07 14:53 50.83742 -3.03679 36024 ft 429 kts 189°
2026-05-07 14:54 50.77819 -3.04899 36042 ft 429 kts 189°
2026-05-07 14:54 50.71904 -3.06113 36036 ft 428 kts 189°
2026-05-07 14:55 50.66001 -3.07322 36030 ft 427 kts 189°
2026-05-07 14:55 50.60159 -3.08516 36009 ft 426 kts 189°
2026-05-07 14:56 50.54291 -3.09712 36020 ft 424 kts 189°
2026-05-07 14:56 50.48443 -3.10901 36018 ft 423 kts 189°
2026-05-07 14:57 50.42604 -3.12086 36020 ft 422 kts 189°
2026-05-07 14:57 50.36808 -3.13483 36010 ft 421 kts 196°
2026-05-07 14:58 50.31361 -3.16720 36023 ft 418 kts 203°
2026-05-07 14:58 50.25979 -3.20215 36029 ft 419 kts 203°
2026-05-07 14:59 50.20581 -3.23669 36031 ft 419 kts 203°
2026-05-07 14:59 50.15168 -3.27093 36028 ft 420 kts 202°
2026-05-07 15:00 50.09740 -3.30510 36026 ft 421 kts 202°
2026-05-07 15:00 50.04300 -3.33926 36023 ft 422 kts 202°
2026-05-07 15:01 49.98885 -3.37319 36021 ft 423 kts 202°
2026-05-07 15:01 49.93422 -3.40735 36022 ft 423 kts 202°
2026-05-07 15:02 49.87956 -3.44144 36011 ft 424 kts 202°
2026-05-07 15:02 49.82485 -3.47550 36023 ft 425 kts 202°
2026-05-07 15:03 49.76970 -3.50973 36333 ft 427 kts 202°
2026-05-07 15:03 49.74160 -3.52443 36565 ft 427 kts 195°
2026-05-07 15:03 49.71237 -3.53259 36771 ft 428 kts 186°
2026-05-07 15:04 49.68257 -3.53478 36937 ft 428 kts 184°
2026-05-07 15:04 49.65272 -3.53622 37000 ft 431 kts 183°
2026-05-07 15:04 49.59263 -3.53897 37006 ft 431 kts 183°
2026-05-07 15:05 49.54291 -3.54151 36999 ft 429 kts 184°
2026-05-07 15:05 49.48347 -3.54485 37000 ft 426 kts 184°
2026-05-07 15:06 49.42435 -3.54829 36998 ft 424 kts 184°
2026-05-07 15:06 49.36550 -3.55174 37003 ft 423 kts 184°
2026-05-07 15:07 49.30671 -3.55517 36998 ft 423 kts 184°
2026-05-07 15:07 49.24780 -3.55860 36988 ft 424 kts 184°
2026-05-07 15:08 49.18868 -3.56202 36998 ft 426 kts 184°
2026-05-07 15:08 49.12927 -3.56545 36994 ft 428 kts 184°
2026-05-07 15:09 49.06963 -3.56889 36986 ft 430 kts 184°
2026-05-07 15:09 49.00972 -3.57233 36972 ft 431 kts 184°
2026-05-07 15:10 48.94999 -3.57575 36984 ft 433 kts 184°
2026-05-07 15:10 48.88966 -3.57920 36978 ft 434 kts 184°
2026-05-07 15:11 48.82919 -3.58265 36959 ft 435 kts 184°
2026-05-07 15:11 48.76877 -3.58608 36964 ft 433 kts 184°
2026-05-07 15:12 48.70866 -3.58949 36962 ft 431 kts 184°
2026-05-07 15:12 48.64875 -3.59288 36965 ft 429 kts 184°
2026-05-07 15:13 48.58913 -3.59625 36961 ft 429 kts 184°
2026-05-07 15:13 48.52962 -3.59961 36979 ft 427 kts 184°
2026-05-07 15:14 48.47020 -3.60295 36972 ft 426 kts 184°
2026-05-07 15:14 48.41100 -3.60627 36988 ft 425 kts 184°
2026-05-07 15:15 48.35186 -3.60958 36973 ft 425 kts 184°
2026-05-07 15:15 48.29309 -3.61287 36987 ft 425 kts 184°
2026-05-07 15:16 48.23398 -3.61616 36991 ft 425 kts 184°
2026-05-07 15:16 48.17477 -3.61945 36984 ft 426 kts 184°
2026-05-07 15:17 48.11544 -3.62274 36993 ft 427 kts 184°
2026-05-07 15:17 48.05600 -3.62603 36990 ft 428 kts 184°
2026-05-07 15:18 47.99646 -3.62932 36998 ft 428 kts 184°
2026-05-07 15:18 47.93679 -3.63261 36985 ft 429 kts 184°
2026-05-07 15:19 47.87706 -3.63589 36992 ft 430 kts 184°
2026-05-07 15:19 47.81759 -3.63915 36998 ft 430 kts 184°
2026-05-07 15:20 47.75770 -3.64242 37004 ft 431 kts 184°
2026-05-07 15:20 47.69779 -3.64569 37001 ft 430 kts 184°
2026-05-07 15:21 47.63795 -3.64895 36999 ft 430 kts 184°
2026-05-07 15:21 47.57815 -3.65220 37002 ft 430 kts 184°
2026-05-07 15:22 47.51830 -3.65544 36987 ft 429 kts 184°
2026-05-07 15:22 47.45864 -3.65867 37008 ft 429 kts 184°
2026-05-07 15:23 47.39898 -3.66189 36997 ft 429 kts 184°
2026-05-07 15:23 47.33975 -3.66507 36998 ft 429 kts 184°
2026-05-07 15:24 47.27979 -3.66830 37001 ft 428 kts 184°
2026-05-07 15:24 47.22020 -3.67149 36996 ft 428 kts 184°
2026-05-07 15:25 47.16095 -3.67466 36999 ft 429 kts 184°
2026-05-07 15:25 47.10132 -3.67784 36995 ft 429 kts 184°
2026-05-07 15:26 47.04163 -3.68102 36998 ft 429 kts 184°
2026-05-07 15:26 46.98206 -3.68679 36999 ft 429 kts 187°
2026-05-07 15:27 46.92254 -3.69447 36998 ft 429 kts 187°
2026-05-07 15:27 46.86293 -3.70202 36990 ft 430 kts 187°
2026-05-07 15:28 46.80322 -3.70923 36994 ft 431 kts 187°
2026-05-07 15:28 46.74377 -3.71626 36992 ft 432 kts 187°
2026-05-07 15:29 46.68386 -3.72328 36991 ft 432 kts 187°
2026-05-07 15:29 46.62386 -3.73030 36992 ft 433 kts 187°
2026-05-07 15:30 46.56382 -3.73731 36989 ft 433 kts 187°
2026-05-07 15:30 46.50374 -3.74431 36982 ft 433 kts 187°
2026-05-07 15:31 46.44368 -3.75130 36987 ft 433 kts 187°
2026-05-07 15:31 46.38362 -3.75828 36986 ft 433 kts 187°
2026-05-07 15:32 46.32356 -3.76523 36983 ft 433 kts 187°
2026-05-07 15:32 46.26358 -3.77217 36975 ft 432 kts 187°
2026-05-07 15:33 46.20366 -3.77908 36981 ft 432 kts 187°
2026-05-07 15:33 46.14375 -3.78597 36981 ft 432 kts 187°
2026-05-07 15:34 46.08389 -3.79285 36973 ft 431 kts 187°
2026-05-07 15:34 46.02405 -3.79970 36974 ft 431 kts 187°
2026-05-07 15:35 45.96460 -3.80650 36975 ft 431 kts 187°
2026-05-07 15:35 45.90480 -3.81332 36960 ft 431 kts 187°
2026-05-07 15:36 45.84498 -3.82013 36970 ft 431 kts 187°
2026-05-07 15:36 45.78520 -3.82692 36970 ft 431 kts 187°
2026-05-07 15:37 45.72534 -3.83371 36967 ft 431 kts 187°
2026-05-07 15:37 45.66551 -3.84048 36962 ft 431 kts 187°
2026-05-07 15:38 45.60558 -3.84724 36967 ft 431 kts 187°
2026-05-07 15:38 45.54568 -3.85399 36967 ft 432 kts 187°
2026-05-07 15:39 45.48611 -3.86068 36958 ft 432 kts 187°
2026-05-07 15:39 45.42616 -3.86741 36966 ft 432 kts 187°
2026-05-07 15:40 45.36617 -3.87412 36966 ft 432 kts 187°
2026-05-07 15:40 45.30613 -3.88083 36936 ft 433 kts 187°
2026-05-07 15:41 45.24596 -3.88753 36952 ft 434 kts 187°
2026-05-07 15:41 45.18569 -3.89424 36959 ft 435 kts 187°
2026-05-07 15:42 45.12534 -3.90093 36952 ft 436 kts 187°
2026-05-07 15:42 45.06479 -3.90764 36957 ft 437 kts 187°
2026-05-07 15:43 45.00412 -3.91434 36946 ft 437 kts 187°
2026-05-07 15:43 44.94338 -3.92104 36942 ft 438 kts 187°
2026-05-07 15:44 44.88254 -3.92773 36940 ft 438 kts 187°
2026-05-07 15:44 44.82208 -3.93437 36943 ft 438 kts 187°
2026-05-07 15:45 44.76125 -3.94103 36935 ft 438 kts 187°
2026-05-07 15:45 44.70048 -3.94767 36935 ft 438 kts 187°
2026-05-07 15:46 44.60939 -3.95761 36927 ft 437 kts 187°
2026-05-07 15:47 44.54878 -3.96420 36925 ft 437 kts 187°
2026-05-07 15:47 44.48823 -3.97077 36920 ft 436 kts 187°
2026-05-07 15:48 44.42779 -3.97732 36919 ft 435 kts 187°
2026-05-07 15:48 44.36741 -3.98385 36919 ft 435 kts 187°
2026-05-07 15:49 44.30729 -3.98754 36910 ft 437 kts 180°
2026-05-07 15:49 44.24650 -3.98132 36909 ft 438 kts 178°
2026-05-07 15:50 44.18574 -3.97428 36916 ft 438 kts 178°
2026-05-07 15:50 44.12490 -3.96790 36894 ft 438 kts 179°
2026-05-07 15:51 44.06403 -3.96190 36911 ft 438 kts 179°
2026-05-07 15:51 44.00312 -3.95598 36907 ft 439 kts 179°
2026-05-07 15:52 43.94253 -3.95007 36890 ft 439 kts 179°
2026-05-07 15:52 43.88154 -3.94413 36901 ft 440 kts 179°
2026-05-07 15:53 43.82046 -3.93819 36891 ft 440 kts 179°
2026-05-07 15:53 43.75926 -3.93225 36888 ft 441 kts 179°
2026-05-07 15:54 43.69804 -3.92625 36890 ft 441 kts 179°
2026-05-07 15:54 43.63673 -3.92023 36892 ft 442 kts 179°
2026-05-07 15:55 43.57533 -3.91422 36884 ft 442 kts 179°
2026-05-07 15:55 43.52433 -3.90924 36881 ft 442 kts 179°
2026-05-07 15:56 43.46287 -3.90328 36888 ft 442 kts 179°
2026-05-07 15:56 43.40188 -3.90732 36894 ft 438 kts 189°
2026-05-07 15:57 43.34133 -3.91742 36882 ft 438 kts 189°
2026-05-07 15:57 43.28065 -3.92715 36887 ft 439 kts 189°
2026-05-07 15:58 43.21986 -3.93633 36890 ft 439 kts 189°
2026-05-07 15:58 43.15903 -3.94533 36870 ft 439 kts 189°
2026-05-07 15:59 43.09864 -3.95424 36887 ft 439 kts 189°
2026-05-07 15:59 43.03787 -3.96322 36894 ft 439 kts 189°
2026-05-07 16:00 42.97716 -3.97217 36895 ft 439 kts 189°
2026-05-07 16:00 42.91648 -3.98109 36895 ft 438 kts 189°
2026-05-07 16:01 42.85586 -3.98995 36909 ft 438 kts 189°
2026-05-07 16:01 42.79521 -3.99881 36899 ft 439 kts 189°
2026-05-07 16:02 42.73451 -4.00766 36904 ft 439 kts 189°
2026-05-07 16:02 42.67381 -4.01650 36903 ft 439 kts 189°
2026-05-07 16:03 42.61309 -4.02533 36903 ft 439 kts 189°
2026-05-07 16:03 42.55237 -4.03412 36907 ft 439 kts 189°
2026-05-07 16:04 42.49168 -4.04284 36895 ft 439 kts 189°
2026-05-07 16:04 42.43092 -4.05156 36910 ft 439 kts 189°
2026-05-07 16:05 42.37010 -4.06027 36912 ft 440 kts 189°
2026-05-07 16:05 42.30913 -4.06899 36903 ft 441 kts 189°
2026-05-07 16:06 42.24844 -4.07766 36907 ft 441 kts 189°
2026-05-07 16:06 42.18735 -4.08636 36909 ft 442 kts 189°
2026-05-07 16:07 42.12619 -4.09506 36903 ft 442 kts 189°
2026-05-07 16:07 42.06499 -4.10375 36896 ft 442 kts 189°
2026-05-07 16:08 42.00380 -4.11216 36909 ft 442 kts 188°
2026-05-07 16:08 41.94242 -4.11914 36900 ft 443 kts 188°
2026-05-07 16:09 41.88096 -4.12589 36894 ft 443 kts 188°
2026-05-07 16:09 41.81954 -4.13278 36909 ft 443 kts 188°
2026-05-07 16:10 41.75815 -4.13976 36904 ft 443 kts 188°
2026-05-07 16:10 41.69713 -4.14670 36890 ft 443 kts 188°
2026-05-07 16:11 41.63573 -4.15366 36916 ft 443 kts 189°
2026-05-07 16:11 41.57421 -4.16062 36897 ft 444 kts 189°
2026-05-07 16:12 41.51264 -4.16757 36900 ft 444 kts 188°
2026-05-07 16:12 41.45100 -4.17447 36889 ft 445 kts 189°
2026-05-07 16:13 41.38937 -4.18131 36899 ft 445 kts 189°
2026-05-07 16:13 41.32761 -4.18816 36902 ft 446 kts 189°
2026-05-07 16:14 41.26571 -4.19503 36892 ft 446 kts 189°
2026-05-07 16:14 41.20374 -4.20194 36898 ft 447 kts 189°
2026-05-07 16:15 41.14178 -4.20887 36906 ft 447 kts 189°
2026-05-07 16:15 41.08013 -4.21575 36912 ft 448 kts 189°
2026-05-07 16:16 41.01802 -4.22265 36909 ft 447 kts 189°
2026-05-07 16:16 40.95591 -4.22953 36908 ft 448 kts 189°
2026-05-07 16:17 40.89373 -4.23638 36914 ft 448 kts 189°
2026-05-07 16:17 40.83159 -4.24323 36938 ft 448 kts 189°
2026-05-07 16:18 40.76942 -4.25007 36909 ft 448 kts 189°
2026-05-07 16:18 40.70725 -4.25689 36914 ft 448 kts 189°
2026-05-07 16:19 40.64521 -4.26368 36907 ft 447 kts 189°
2026-05-07 16:19 40.58322 -4.27046 36911 ft 447 kts 189°
2026-05-07 16:20 40.52124 -4.27724 36900 ft 447 kts 189°
2026-05-07 16:20 40.45979 -4.28393 36902 ft 446 kts 189°
2026-05-07 16:21 40.39791 -4.29066 36882 ft 445 kts 189°
2026-05-07 16:21 40.33620 -4.29735 36883 ft 444 kts 189°
2026-05-07 16:22 40.27457 -4.30405 36886 ft 445 kts 189°
2026-05-07 16:22 40.21282 -4.31073 36887 ft 446 kts 189°
2026-05-07 16:23 40.15089 -4.31742 36877 ft 447 kts 190°
2026-05-07 16:23 40.08868 -4.32413 36891 ft 449 kts 190°
2026-05-07 16:24 40.02671 -4.33080 36877 ft 450 kts 190°
2026-05-07 16:24 39.96418 -4.33769 36875 ft 450 kts 192°
2026-05-07 16:25 39.90251 -4.35038 36873 ft 448 kts 196°
2026-05-07 16:25 39.84115 -4.36496 36875 ft 449 kts 196°
2026-05-07 16:26 39.77950 -4.37869 36869 ft 449 kts 195°
2026-05-07 16:26 39.71781 -4.39202 36862 ft 449 kts 195°
2026-05-07 16:27 39.65603 -4.40513 36870 ft 449 kts 195°
2026-05-07 16:27 39.59437 -4.41821 36883 ft 449 kts 195°
2026-05-07 16:28 39.53276 -4.43129 36866 ft 448 kts 196°
2026-05-07 16:28 39.47170 -4.44423 36858 ft 447 kts 197°
2026-05-07 16:29 39.41039 -4.45723 36866 ft 446 kts 197°
2026-05-07 16:29 39.34928 -4.47015 36882 ft 445 kts 197°
2026-05-07 16:30 39.28815 -4.48306 36875 ft 444 kts 197°
2026-05-07 16:30 39.22823 -4.49932 36879 ft 432 kts 208°
2026-05-07 16:31 39.17637 -4.53443 36881 ft 415 kts 221°
2026-05-07 16:31 39.12860 -4.57617 36861 ft 415 kts 221°
2026-05-07 16:32 39.08095 -4.61721 36857 ft 414 kts 221°
2026-05-07 16:32 39.03288 -4.65808 36856 ft 414 kts 221°
2026-05-07 16:33 38.98298 -4.69538 36837 ft 423 kts 210°
2026-05-07 16:33 38.92779 -4.72196 36850 ft 423 kts 209°
2026-05-07 16:34 38.87269 -4.74805 36837 ft 421 kts 209°
2026-05-07 16:34 38.81790 -4.77428 36844 ft 420 kts 209°
2026-05-07 16:35 38.76326 -4.80061 36844 ft 418 kts 209°
2026-05-07 16:35 38.70880 -4.82689 36840 ft 417 kts 209°
2026-05-07 16:36 38.65450 -4.85306 36843 ft 417 kts 209°
2026-05-07 16:36 38.60057 -4.87901 36843 ft 417 kts 209°
2026-05-07 16:37 38.54632 -4.90507 36762 ft 416 kts 209°
2026-05-07 16:37 38.49221 -4.93099 36835 ft 415 kts 209°
2026-05-07 16:38 38.43812 -4.95689 36834 ft 415 kts 209°
2026-05-07 16:38 38.38399 -4.98277 36843 ft 416 kts 209°
2026-05-07 16:39 38.32980 -5.00863 36860 ft 416 kts 209°
2026-05-07 16:39 38.27554 -5.03447 36837 ft 417 kts 209°
2026-05-07 16:40 38.22162 -5.06011 36846 ft 416 kts 209°
2026-05-07 16:40 38.16693 -5.08608 36844 ft 417 kts 209°
2026-05-07 16:41 38.11287 -5.11171 36840 ft 417 kts 209°
2026-05-07 16:41 38.05852 -5.13743 36816 ft 417 kts 208°
2026-05-07 16:42 38.00433 -5.16302 36845 ft 415 kts 209°
2026-05-07 16:42 37.95023 -5.18855 36857 ft 415 kts 209°
2026-05-07 16:43 37.89610 -5.21405 36858 ft 414 kts 209°
2026-05-07 16:43 37.84205 -5.23947 36850 ft 414 kts 209°
2026-05-07 16:44 37.78809 -5.26480 36842 ft 413 kts 209°
2026-05-07 16:44 37.73420 -5.29008 36854 ft 413 kts 209°
2026-05-07 16:45 37.68944 -5.31103 36844 ft 413 kts 209°
2026-05-07 16:45 37.63570 -5.33614 36497 ft 408 kts 209°
2026-05-07 16:45 37.60933 -5.34840 36159 ft 401 kts 209°
2026-05-07 16:46 37.58335 -5.36047 35823 ft 395 kts 209°
2026-05-07 16:46 37.55762 -5.37245 35437 ft 392 kts 209°
2026-05-07 16:46 37.53217 -5.38431 35078 ft 389 kts 209°
2026-05-07 16:46 37.50695 -5.39606 34709 ft 385 kts 209°
2026-05-07 16:47 37.48187 -5.40774 34347 ft 383 kts 209°
2026-05-07 16:47 37.45700 -5.41932 33987 ft 380 kts 210°
2026-05-07 16:47 37.43228 -5.43081 33589 ft 378 kts 210°
2026-05-07 16:47 37.40773 -5.44222 33191 ft 375 kts 209°
2026-05-07 16:48 37.38331 -5.45356 32821 ft 372 kts 209°
2026-05-07 16:48 37.35912 -5.46478 32452 ft 369 kts 209°
2026-05-07 16:48 37.33514 -5.47588 32083 ft 366 kts 209°
2026-05-07 16:48 37.31134 -5.48690 31744 ft 363 kts 208°
2026-05-07 16:49 37.28770 -5.49785 31400 ft 361 kts 208°
2026-05-07 16:49 37.26418 -5.50873 31072 ft 359 kts 208°
2026-05-07 16:49 37.24086 -5.51951 30727 ft 357 kts 208°
2026-05-07 16:49 37.21762 -5.53025 30385 ft 355 kts 208°
2026-05-07 16:50 37.19451 -5.54093 30051 ft 353 kts 208°
2026-05-07 16:50 37.17148 -5.55155 29664 ft 352 kts 207°
2026-05-07 16:50 37.14858 -5.56211 29283 ft 350 kts 207°
2026-05-07 16:50 37.12582 -5.57258 28921 ft 347 kts 207°
2026-05-07 16:51 37.10325 -5.58297 28531 ft 344 kts 207°
2026-05-07 16:51 37.08116 -5.59312 28222 ft 341 kts 207°
2026-05-07 16:51 37.05871 -5.60344 27865 ft 338 kts 207°
2026-05-07 16:51 37.03697 -5.61343 27525 ft 336 kts 207°
2026-05-07 16:52 37.01507 -5.62349 27180 ft 334 kts 207°
2026-05-07 16:52 36.99333 -5.63347 26852 ft 332 kts 207°
2026-05-07 16:52 36.97170 -5.64339 26511 ft 330 kts 207°
2026-05-07 16:52 36.95018 -5.65326 26180 ft 328 kts 207°
2026-05-07 16:53 36.92878 -5.66306 25849 ft 327 kts 207°
2026-05-07 16:53 36.90748 -5.67282 25505 ft 325 kts 207°
2026-05-07 16:53 36.88594 -5.68272 24850 ft 335 kts 207°
2026-05-07 16:53 36.86388 -5.69285 24360 ft 339 kts 206°
2026-05-07 16:54 36.84183 -5.70293 24025 ft 337 kts 206°
2026-05-07 16:54 36.81992 -5.71290 23758 ft 333 kts 206°
2026-05-07 16:54 36.79822 -5.72278 23466 ft 330 kts 206°
2026-05-07 16:54 36.77667 -5.73259 23076 ft 329 kts 206°
2026-05-07 16:55 36.75529 -5.74233 22692 ft 327 kts 206°
2026-05-07 16:55 36.73391 -5.75207 22323 ft 326 kts 206°
2026-05-07 16:55 36.71265 -5.76175 21976 ft 324 kts 206°
2026-05-07 16:55 36.69150 -5.77138 21643 ft 323 kts 205°
2026-05-07 16:56 36.67071 -5.78083 21301 ft 321 kts 205°
2026-05-07 16:56 36.64976 -5.79035 20957 ft 319 kts 205°
2026-05-07 16:56 36.60817 -5.80924 20288 ft 317 kts 205°
2026-05-07 16:57 36.58749 -5.81862 19984 ft 314 kts 205°
2026-05-07 16:57 36.56703 -5.82789 19707 ft 311 kts 205°
2026-05-07 16:57 36.54670 -5.83711 19377 ft 311 kts 205°
2026-05-07 16:57 36.52642 -5.84630 19055 ft 309 kts 205°
2026-05-07 16:58 36.50624 -5.85544 18749 ft 308 kts 205°
2026-05-07 16:58 36.48615 -5.86453 18451 ft 307 kts 205°
2026-05-07 16:58 36.46614 -5.87358 18129 ft 306 kts 205°
2026-05-07 16:58 36.44618 -5.88261 17764 ft 305 kts 205°
2026-05-07 16:59 36.42629 -5.89160 17411 ft 304 kts 205°
2026-05-07 16:59 36.40641 -5.90058 17063 ft 303 kts 204°
2026-05-07 16:59 36.38663 -5.90951 16727 ft 302 kts 204°
2026-05-07 16:59 36.36687 -5.91842 16375 ft 302 kts 204°
2026-05-07 17:00 36.34718 -5.92730 16038 ft 301 kts 204°
2026-05-07 17:00 36.32757 -5.93614 15745 ft 299 kts 203°
2026-05-07 17:00 36.30830 -5.94482 15406 ft 299 kts 203°
2026-05-07 17:00 36.28873 -5.95363 15055 ft 300 kts 203°
2026-05-07 17:01 36.26911 -5.96245 14697 ft 300 kts 202°
2026-05-07 17:01 36.24942 -5.97126 14341 ft 301 kts 201°
2026-05-07 17:01 36.22875 -5.97617 13975 ft 307 kts 183°
2026-05-07 17:01 36.20741 -5.97531 13637 ft 307 kts 180°
2026-05-07 17:02 36.18601 -5.97390 13246 ft 308 kts 179°
2026-05-07 17:02 36.16460 -5.97247 12858 ft 308 kts 180°
2026-05-07 17:02 36.14324 -5.97111 12473 ft 308 kts 179°
2026-05-07 17:02 36.12183 -5.96981 12095 ft 307 kts 179°
2026-05-07 17:03 36.10047 -5.96857 11725 ft 307 kts 180°
2026-05-07 17:03 36.07912 -5.96736 11348 ft 307 kts 180°
2026-05-07 17:03 36.05784 -5.96618 10983 ft 306 kts 180°
2026-05-07 17:03 36.03656 -5.96501 10617 ft 305 kts 180°
2026-05-07 17:04 36.01538 -5.96386 10261 ft 304 kts 179°
2026-05-07 17:04 35.99453 -5.96272 10163 ft 294 kts 179°
2026-05-07 17:04 35.97442 -5.96162 10077 ft 284 kts 179°
2026-05-07 17:04 35.95491 -5.96056 9918 ft 278 kts 179°
2026-05-07 17:05 35.93571 -5.95952 9666 ft 274 kts 180°
2026-05-07 17:05 35.91669 -5.95851 9335 ft 274 kts 179°
2026-05-07 17:05 35.89776 -5.95749 9082 ft 270 kts 179°
2026-05-07 17:05 35.87927 -5.95649 8812 ft 268 kts 180°
2026-05-07 17:06 35.86070 -5.95549 8516 ft 266 kts 179°
2026-05-07 17:06 35.84228 -5.95635 8167 ft 265 kts 196°
2026-05-07 17:06 35.82618 -5.96665 7921 ft 261 kts 218°
2026-05-07 17:06 35.81366 -5.98287 7595 ft 262 kts 230°
2026-05-07 17:07 35.80260 -6.00060 7340 ft 260 kts 230°
2026-05-07 17:07 35.78863 -6.01389 7091 ft 254 kts 197°
2026-05-07 17:07 35.77130 -6.01545 7064 ft 251 kts 172°
2026-05-07 17:07 35.75479 -6.00819 6998 ft 258 kts 150°
2026-05-07 17:08 35.74171 -5.99277 6948 ft 267 kts 126°
2026-05-07 17:08 35.73498 -5.97145 6882 ft 271 kts 101°
2026-05-07 17:08 35.73408 -5.94863 6826 ft 262 kts 94°
2026-05-07 17:08 35.73387 -5.92654 6741 ft 253 kts 96°
2026-05-07 17:09 35.72967 -5.90634 6661 ft 239 kts 119°
2026-05-07 17:09 35.72255 -5.88799 6613 ft 238 kts 119°
2026-05-07 17:09 35.71553 -5.86962 6584 ft 235 kts 119°
2026-05-07 17:09 35.70861 -5.85144 6527 ft 236 kts 119°
2026-05-07 17:10 35.70161 -5.83305 6470 ft 240 kts 119°
2026-05-07 17:10 35.69462 -5.81462 6405 ft 235 kts 118°
2026-05-07 17:10 35.68778 -5.79656 6124 ft 230 kts 119°
2026-05-07 17:10 35.68111 -5.77897 5932 ft 222 kts 119°
2026-05-07 17:11 35.67484 -5.76239 5842 ft 211 kts 119°
2026-05-07 17:11 35.66874 -5.74628 5745 ft 199 kts 120°
2026-05-07 17:11 35.66308 -5.73136 5673 ft 194 kts 120°
2026-05-07 17:11 35.65736 -5.71635 5582 ft 193 kts 120°
2026-05-07 17:12 35.65175 -5.70161 5477 ft 188 kts 119°
2026-05-07 17:12 35.64621 -5.68700 5357 ft 187 kts 118°
2026-05-07 17:12 35.64300 -5.67135 5219 ft 198 kts 97°
2026-05-07 17:12 35.64522 -5.65407 5027 ft 212 kts 71°
2026-05-07 17:13 35.65349 -5.63900 4805 ft 216 kts 43°
2026-05-07 17:13 35.66647 -5.63008 4542 ft 214 kts 13°
2026-05-07 17:13 35.68085 -5.62943 4347 ft 203 kts 343°
2026-05-07 17:13 35.69333 -5.63610 4180 ft 191 kts 318°
2026-05-07 17:14 35.70213 -5.64796 3983 ft 186 kts 294°
2026-05-07 17:14 35.70672 -5.66248 3870 ft 178 kts 277°
2026-05-07 17:14 35.70893 -5.67744 3675 ft 178 kts 274°
2026-05-07 17:14 35.71058 -5.69257 3440 ft 179 kts 274°
2026-05-07 17:15 35.71203 -5.70760 3211 ft 176 kts 274°
2026-05-07 17:15 35.71339 -5.72243 2953 ft 173 kts 273°
2026-05-07 17:15 35.71476 -5.73744 2753 ft 180 kts 274°
2026-05-07 17:15 35.71615 -5.75277 2515 ft 180 kts 275°
2026-05-07 17:16 35.71753 -5.76780 2299 ft 176 kts 275°
2026-05-07 17:16 35.71890 -5.78279 2041 ft 172 kts 276°
2026-05-07 17:16 35.72021 -5.79726 1801 ft 168 kts 276°
2026-05-07 17:16 35.72150 -5.81123 1566 ft 163 kts 277°
2026-05-07 17:17 35.72271 -5.82437 1399 ft 146 kts 276°
2026-05-07 17:17 35.72380 -5.83634 1181 ft 135 kts 276°
2026-05-07 17:17 35.72485 -5.84771 1006 ft 135 kts 276°
2026-05-07 17:17 35.72595 -5.85962 843 ft 144 kts 276°
2026-05-07 17:18 35.72709 -5.87208 668 ft 148 kts 276°
2026-05-07 17:18 35.72838 -5.88470 449 ft 148 kts 275°
2026-05-07 17:18 35.72946 -5.89709 248 ft 145 kts 274°
2026-05-07 17:18 35.73055 -5.90933 79 ft 141 kts 275°
2026-05-07 17:19 35.73154 -5.92002 59 ft 101 kts 277°
2026-05-07 17:19 35.73211 -5.92617 58 ft 56 kts 276°
2026-05-07 17:19 35.73249 -5.93019 55 ft 32 kts 276°
2026-05-07 17:19 35.73263 -5.93233 52 ft 16 kts 262°
2026-05-07 17:20 35.73218 -5.93318 59 ft 12 kts 212°
2026-05-07 17:20 35.73139 -5.93321 59 ft 12 kts 158°
2026-05-07 17:20 35.73088 -5.93249 58 ft 11 kts 104°
2026-05-07 17:20 35.73079 -5.93153 59 ft 11 kts 95°
2026-05-07 17:21 35.73070 -5.93050 56 ft 14 kts 96°
2026-05-07 17:21 35.73057 -5.92903 55 ft 20 kts 96°
2026-05-07 17:21 35.73041 -5.92734 54 ft 20 kts 96°
2026-05-07 17:21 35.73025 -5.92570 59 ft 19 kts 96°
2026-05-07 17:22 35.73011 -5.92412 56 ft 18 kts 96°
2026-05-07 17:22 35.72996 -5.92258 55 ft 18 kts 97°
2026-05-07 17:22 35.72982 -5.92110 58 ft 17 kts 96°
2026-05-07 17:22 35.72969 -5.91966 56 ft 17 kts 97°
2026-05-07 17:23 35.72956 -5.91828 55 ft 15 kts 96°
2026-05-07 17:23 35.72920 -5.91734 57 ft 12 kts 148°
2026-05-07 17:23 35.72834 -5.91716 59 ft 13 kts 175°
2026-05-07 17:23 35.72727 -5.91706 59 ft 18 kts 176°
2026-05-07 17:24 35.72598 -5.91694 59 ft 19 kts 176°
2026-05-07 17:24 35.72483 -5.91667 56 ft 16 kts 149°
2026-05-07 17:24 35.72427 -5.91558 56 ft 15 kts 97°
2026-05-07 17:24 35.72433 -5.91430 59 ft 15 kts 85°
2026-05-07 17:25 35.72440 -5.91307 51 ft 14 kts 85°
2026-05-07 17:25 35.72448 -5.91194 59 ft 11 kts 85°
2026-05-07 17:25 35.72453 -5.91105 53 ft 10 kts 87°
2026-05-07 17:25 35.72489 -5.91077 55 ft 6 kts
2026-05-07 17:26 35.72526 -5.91080 57 ft 3 kts 356°
2026-05-07 17:26 35.72533 -5.91080 59 ft 0 kts 356°